• In Moldova, Republic
  • List of Countries
  • For 7 days
  • Water Temperature
  • Satellite Maps
  • Weather Map
  • Weather Widgets
  • user-avatar
    Login

    Hourly Weather Ali Bayramli

    Today, 26 February, Sunday

    Time Temperature Precipitation Wind Pressure Humidity
    00:00 +8°C° 0 mm 4 mps 759 mmHg 61%
    01:00 +7°C° 0 mm 4 mps 759 mmHg 61%
    02:00 +7°C° 0 mm 5 mps 758 mmHg 60%
    03:00 +7°C° 0 mm 5 mps 758 mmHg 57%
    04:00 +7°C° 0 mm 5 mps 758 mmHg 57%
    05:00 +7°C° 0 mm 5 mps 758 mmHg 57%
    06:00 +7°C° 0 mm 5 mps 758 mmHg 56%
    07:00 +8°C° 0 mm 6 mps 758 mmHg 51%
    08:00 +10°C° 0 mm 6 mps 759 mmHg 46%
    09:00 +12°C° 0 mm 7 mps 759 mmHg 40%
    10:00 +14°C° 0 mm 6 mps 760 mmHg 38%
    11:00 +15°C° 0 mm 6 mps 760 mmHg 36%
    12:00 +17°C° 0 mm 5 mps 761 mmHg 34%
    13:00 +17°C° 0 mm 6 mps 761 mmHg 36%
    14:00 +16°C° 0 mm 7 mps 762 mmHg 38%
    15:00 +16°C° 0 mm 8 mps 762 mmHg 41%
    16:00 +12°C° 0 mm 9 mps 763 mmHg 47%
    17:00 +10°C° 0 mm 9 mps 764 mmHg 53%
    18:00 +6°C° 0 mm 10 mps 765 mmHg 59%
    19:00 +6°C° 0 mm 10 mps 766 mmHg 59%
    20:00 +5°C° 0 mm 9 mps 767 mmHg 58%
    21:00 +4°C° 0 mm 8 mps 768 mmHg 58%
    22:00 +4°C° 0 mm 8 mps 768 mmHg 57%
    23:00 +4°C° 0 mm 7 mps 768 mmHg 56%

    Tomorrow, 27 February, Monday

    Time Temperature Precipitation Wind Pressure Humidity
    00:00 +4°C° 0 mm 7 mps 769 mmHg 55%
    01:00 +4°C° 0 mm 6 mps 769 mmHg 57%
    02:00 +3°C° 0 mm 5 mps 769 mmHg 58%
    03:00 +3°C° 0 mm 5 mps 769 mmHg 59%
    04:00 +4°C° 0 mm 4 mps 769 mmHg 60%
    05:00 +4°C° 0 mm 4 mps 769 mmHg 61%
    06:00 +4°C° 0 mm 3 mps 769 mmHg 62%
    07:00 +4°C° 0 mm 3 mps 769 mmHg 61%
    08:00 +5°C° 0 mm 3 mps 769 mmHg 60%
    09:00 +5°C° 0 mm 3 mps 769 mmHg 59%
    10:00 +7°C° 0 mm 3 mps 768 mmHg 59%
    11:00 +8°C° 0 mm 3 mps 768 mmHg 59%
    12:00 +8°C° 0 mm 2 mps 767 mmHg 59%
    13:00 +9°C° 0 mm 2 mps 767 mmHg 59%
    14:00 +9°C° 0 mm 3 mps 766 mmHg 59%
    15:00 +10°C° 0 mm 3 mps 766 mmHg 59%
    16:00 +9°C° 0 mm 3 mps 766 mmHg 63%
    17:00 +9°C° 0 mm 2 mps 766 mmHg 67%
    18:00 +8°C° 0 mm 2 mps 766 mmHg 71%
    19:00 +7°C° 0 mm 2 mps 766 mmHg 75%
    20:00 +7°C° 0 mm 2 mps 766 mmHg 79%
    21:00 +6°C° 0 mm 2 mps 766 mmHg 83%
    22:00 +6°C° 0 mm 2 mps 765 mmHg 86%
    23:00 +5°C° 0 mm 2 mps 765 mmHg 88%

    Day after tomorrow, 28 February, Tuesday

    Time Temperature Precipitation Wind Pressure Humidity
    00:00 +5°C° 0 mm 2 mps 765 mmHg 91%
    01:00 +5°C° 0 mm 2 mps 765 mmHg 91%
    02:00 +4°C° 0 mm 2 mps 764 mmHg 92%
    03:00 +4°C° 0 mm 2 mps 764 mmHg 92%
    04:00 +5°C° 0 mm 1 mps 764 mmHg 92%
    05:00 +5°C° 0 mm 1 mps 765 mmHg 92%
    06:00 +4°C° 0 mm 1 mps 765 mmHg 92%
    07:00 +6°C° 0 mm 1 mps 765 mmHg 84%
    08:00 +8°C° 0 mm 1 mps 766 mmHg 76%
    09:00 +9°C° 0 mm 1 mps 766 mmHg 68%
    10:00 +10°C° 0 mm 1 mps 766 mmHg 62%
    11:00 +12°C° 0 mm 1 mps 766 mmHg 55%
    12:00 +13°C° 0 mm 1 mps 766 mmHg 49%
    13:00 +13°C° 0 mm 1 mps 765 mmHg 47%
    14:00 +14°C° 0 mm 1 mps 765 mmHg 45%
    15:00 +14°C° 0 mm 1 mps 765 mmHg 44%
    16:00 +13°C° 0 mm 2 mps 765 mmHg 50%
    17:00 +12°C° 0 mm 2 mps 765 mmHg 56%
    18:00 +9°C° 0 mm 2 mps 766 mmHg 62%
    19:00 +9°C° 0 mm 2 mps 766 mmHg 67%
    20:00 +8°C° 0 mm 2 mps 766 mmHg 72%
    21:00 +7°C° 0 mm 2 mps 767 mmHg 77%
    22:00 +7°C° 0 mm 2 mps 767 mmHg 78%
    23:00 +8°C° 0 mm 1 mps 767 mmHg 80%

    1 March, Wednesday

    Time Temperature Precipitation Wind Pressure Humidity
    00:00 +7°C° 0 mm 1 mps 766 mmHg 81%
    01:00 +7°C° 0 mm 1 mps 766 mmHg 82%
    02:00 +7°C° 0 mm 1 mps 766 mmHg 83%
    03:00 +6°C° 0 mm 1 mps 766 mmHg 83%
    04:00 +6°C° 0 mm 1 mps 766 mmHg 84%
    05:00 +6°C° 0 mm 1 mps 767 mmHg 85%
    06:00 +5°C° 0 mm 1 mps 767 mmHg 86%
    07:00 +7°C° 0 mm 1 mps 767 mmHg 78%
    08:00 +9°C° 0 mm 1 mps 767 mmHg 71%
    09:00 +11°C° 0 mm 1 mps 768 mmHg 63%
    10:00 +12°C° 0 mm 2 mps 767 mmHg 59%
    11:00 +13°C° 0 mm 2 mps 767 mmHg 55%
    12:00 +14°C° 0 mm 2 mps 766 mmHg 52%
    13:00 +14°C° 0 mm 3 mps 766 mmHg 51%
    14:00 +14°C° 0 mm 3 mps 765 mmHg 51%
    15:00 +14°C° 0 mm 4 mps 765 mmHg 51%
    16:00 +13°C° 0 mm 4 mps 765 mmHg 57%
    17:00 +11°C° 0 mm 3 mps 765 mmHg 64%
    18:00 +10°C° 0 mm 3 mps 765 mmHg 70%
    19:00 +9°C° 0 mm 3 mps 765 mmHg 74%
    20:00 +9°C° 0 mm 3 mps 765 mmHg 77%
    21:00 +8°C° 0 mm 2 mps 765 mmHg 81%
    22:00 +8°C° 0 mm 2 mps 765 mmHg 82%
    23:00 +8°C° 0 mm 2 mps 764 mmHg 84%

    2 March, Thursday

    Time Temperature Precipitation Wind Pressure Humidity
    00:00 +7°C° 0 mm 2 mps 764 mmHg 85%
    01:00 +7°C° 0 mm 2 mps 764 mmHg 86%
    02:00 +7°C° 0 mm 2 mps 763 mmHg 87%
    03:00 +6°C° 0 mm 2 mps 763 mmHg 88%
    04:00 +6°C° 0 mm 2 mps 763 mmHg 88%
    05:00 +6°C° 0 mm 2 mps 763 mmHg 89%
    06:00 +7°C° 0 mm 1 mps 763 mmHg 90%
    07:00 +7°C° 0 mm 2 mps 763 mmHg 84%
    08:00 +9°C° 0 mm 2 mps 763 mmHg 78%
    09:00 +10°C° 0 mm 2 mps 763 mmHg 72%
    10:00 +13°C° 0 mm 2 mps 762 mmHg 66%
    11:00 +13°C° 0 mm 3 mps 762 mmHg 60%
    12:00 +14°C° 0 mm 3 mps 761 mmHg 53%
    13:00 +14°C° 0 mm 3 mps 761 mmHg 52%
    14:00 +15°C° 0 mm 4 mps 760 mmHg 50%
    15:00 +15°C° 0 mm 4 mps 760 mmHg 49%
    16:00 +14°C° 0 mm 4 mps 760 mmHg 54%
    17:00 +12°C° 0 mm 4 mps 760 mmHg 60%
    18:00 +11°C° 0 mm 3 mps 760 mmHg 65%
    19:00 +10°C° 0 mm 3 mps 760 mmHg 67%
    20:00 +10°C° 0 mm 2 mps 760 mmHg 69%
    21:00 +10°C° 0 mm 2 mps 760 mmHg 72%
    22:00 +9°C° 0 mm 2 mps 760 mmHg 71%
    23:00 +10°C° 0 mm 1 mps 759 mmHg 70%

    3 March, Friday

    Time Temperature Precipitation Wind Pressure Humidity
    00:00 +10°C° 0 mm 1 mps 759 mmHg 70%
    01:00 +10°C° 0 mm 1 mps 759 mmHg 70%
    02:00 +9°C° 0 mm 1 mps 759 mmHg 71%
    03:00 +9°C° 0 mm 1 mps 759 mmHg 72%
    04:00 +9°C° 0 mm 1 mps 759 mmHg 74%
    05:00 +8°C° 0 mm 1 mps 759 mmHg 76%
    06:00 +8°C° 0 mm 1 mps 759 mmHg 78%
    07:00 +9°C° 0 mm 1 mps 759 mmHg 72%
    08:00 +11°C° 0 mm 1 mps 759 mmHg 66%
    09:00 +12°C° 0 mm 1 mps 759 mmHg 60%
    10:00 +14°C° 0 mm 1 mps 759 mmHg 56%
    11:00 +15°C° 0 mm 1 mps 758 mmHg 52%
    12:00 +16°C° 0 mm 1 mps 758 mmHg 49%
    13:00 +16°C° 0 mm 2 mps 758 mmHg 48%
    14:00 +17°C° 0 mm 2 mps 757 mmHg 47%
    15:00 +17°C° 0 mm 3 mps 757 mmHg 47%
    16:00 +16°C° 0 mm 3 mps 757 mmHg 53%
    17:00 +13°C° 0 mm 3 mps 757 mmHg 59%
    18:00 +12°C° 0 mm 3 mps 758 mmHg 65%
    19:00 +12°C° 0 mm 2 mps 758 mmHg 68%
    20:00 +12°C° 0 mm 2 mps 758 mmHg 71%
    21:00 +10°C° 0 mm 2 mps 758 mmHg 74%
    22:00 +11°C° 0 mm 1 mps 758 mmHg 75%
    23:00 +10°C° 0 mm 1 mps 758 mmHg 76%
    Show more